Flag for U.S.A. Weather past 2 weeks in Stamford, Connecticut, U.S.A.

Now
63 °F

Passing clouds.


Feels Like: 63 °F
Forecast: 65 / 83 °F
Wind: No wind

Location: Westchester County Airport

Current Time: May 27, 2015 at 7:12:16 AM

Latest Report: May 27, 2015 at 5:56 AM


Visibility: 7 mi

Pressure: 30.16 "Hg

Humidity: 93%

Dew point: 61 °F

Location of StamfordLocation

Historic Weather in Stamford — Graph

°F

Stamford temperature yesterday

Maximum temperature yesterday: 83 °F (at 12:56 PM)
Minimum temperature yesterday: 59 °F (at 5:56 AM)
Average temperature yesterday: 72 °F

Past Weeks' High & Low Weather Summary

 TemperatureHumidityPressure
High83 °F (May 26, 12:56 PM)100% (May 16, 8:02 AM)30.41 "Hg (May 16, 8:02 AM)
Low42 °F (May 23, 5:56 AM)19% (May 14, 4:56 PM)29.72 "Hg (May 12, 5:56 PM)
Average62 °F62%30.10 "Hg
* Reported May 12 5:56 AM — May 27 5:56 AM, Stamford, Weather by CustomWeather, © 2015

Note: Actual official high and low records may vary slightly from our data, if they occured in-between our weather recording intervals... More about our weather records

Advertising

Stamford weather history for previous 24 hours

 ConditionsComfort  
Time TempWeatherWind HumidityBarometerVisibility
5:56 AM
Wed, May 27
63 °FPassing clouds.No wind93%30.16 "Hg7 mi
4:56 AM62 °FPassing clouds.3 mph90%30.14 "Hg9 mi
3:56 AM63 °FClear.No wind87%30.13 "Hg10 mi
2:56 AM64 °FPassing clouds.No wind87%30.14 "Hg10 mi
1:56 AM64 °FPassing clouds.No wind87%30.14 "Hg10 mi
12:56 AM65 °FClear.No wind85%30.15 "Hg10 mi
11:56 PM
Tue, May 26
66 °FClear.3 mph81%30.15 "Hg10 mi
10:56 PM67 °FClear.7 mph79%30.14 "Hg10 mi
9:56 PM68 °FClear.3 mph76%30.14 "Hg10 mi
8:56 PM70 °FSunny.6 mph73%30.12 "Hg10 mi
7:56 PM72 °FSunny.7 mph68%30.13 "Hg10 mi
6:56 PM75 °FSunny.9 mph64%30.13 "Hg10 mi
5:56 PM78 °FSunny.8 mph58%30.13 "Hg10 mi
4:56 PM81 °FSunny.9 mph53%30.14 "Hg10 mi
3:56 PM83 °FSunny.13 mph46%30.14 "Hg10 mi
2:56 PM83 °FPassing clouds.9 mph48%30.14 "Hg10 mi
1:56 PM82 °FPassing clouds.9 mph49%30.16 "Hg10 mi
12:56 PM83 °FPassing clouds.9 mph46%30.17 "Hg10 mi
11:56 AM81 °FSunny.6 mph49%30.18 "Hg10 mi
10:56 AM78 °FSunny.6 mph54%30.19 "Hg10 mi
9:56 AM75 °FSunny.7 mph58%30.19 "Hg10 mi
8:56 AM71 °FPassing clouds.7 mph63%30.20 "Hg10 mi
7:56 AM69 °FPassing clouds.3 mph66%30.21 "Hg9 mi
Weather by CustomWeather, © 2015

See weather overviewHow to use our weather pages